Temperature
14 14 14 14 13 13 13 13 13 13 13 13 13 12 12 12 12 12 12 12 12 12 12 12 12 12 12 12 12 12 12 12 11 12 12 12 12 12 11 12 12 12 12
14 14 14 14 13 13 13 13 13 13 13 13 12 12 12 12 12 12 12 12 12 12 12 12 12 12 12 12 12 12 12 12 11 11 12 11 11 11 11 11 11 11 11
14 14 14 13 13 13 13 13 13 13 13 13 12 12 12 12 12 12 12 12 12 12 12 12 11 11 11 12 11 12 12 11 11 11 11 11 11 11 11 11 11 11 11
14 14 14 13 13 13 13 13 13 13 13 12 12 12 12 12 12 12 12 12 12 12 11 11 11 11 11 11 11 11 11 11 11 11 11 11 11 11 11 11 11 11 11
14 14 14 13 13 13 13 13 13 12 12 12 12 12 12 12 12 12 12 12 12 12 11 11 11 11 11 11 11 11 11 11 11 11 10 10 11 10 10 10 10 10 11
14 14 14 13 13 13 13 13 13 12 12 12 12 12 12 12 12 12 12 12 11 11 11 11 11 11 11 11 11 11 11 11 10 10 10 10 10 10 10 10 10 10 10
14 14 14 13 13 13 13 13 13 12 12 12 12 12 12 12 12 12 12 12 11 11 11 11 11 11 11 11 11 11 11 10 10 10 10 10 10 10 10 10 10 10 10
14 14 14 13 13 13 13 13 13 13 12 12 12 12 12 12 12 12 11 11 11 11 11 11 11 11 11 11 11 11 10 10 10 10 10 10 10 10 10 10 10 9 10
14 14 14 14 13 13 13 13 13 13 13 12 12 12 12 12 12 12 11 11 11 11 11 11 11 11 11 11 10 10 10 10 10 10 10 10 10 10 9 9 9 9 9
14 14 14 14 13 13 13 13 13 13 13 13 12 12 12 12 12 12 12 11 11 11 11 11 11 11 11 10 10 10 10 10 10 10 10 10 9 9 9 9 9 9 9
14 14 14 13 13 13 13 13 13 13 13 12 12 12 12 12 12 12 12 11 11 11 11 11 11 11 10 10 10 10 10 10 10 10 10 9 9 9 9 9 9 9 9
14 14 13 13 13 13 13 13 13 13 12 12 12 12 12 12 12 12 11 11 11 11 11 11 11 10 10 10 10 10 10 9 9 9 9 9 9 9 9 9 9 9 8
14 13 13 13 13 13 13 13 13 12 12 12 12 12 12 12 12 12 11 11 11 11 10 10 10 10 10 10 9 9 9 9 9 9 9 9 9 9 9 8 8 8 8
13 13 13 13 13 13 12 12 12 12 12 12 12 12 12 12 12 12 11 11 11 11 10 10 10 10 10 10 9 9 9 9 9 9 9 9 9 9 8 8 8 8 8
13 13 13 13 13 12 12 12 12 12 12 12 12 12 12 12 12 11 11 11 11 10 10 10 10 10 10 9 9 9 9 9 9 9 9 9 9 9 8 8 8 8 8
12 12 12 12 12 12 12 12 12 12 12 12 12 11 11 11 11 11 11 11 11 10 10 10 10 9 9 9 9 9 9 8 8 8 8 8 8 8 8 8 8 8 7
12 12 12 12 12 12 12 12 12 12 12 11 11 11 11 11 11 11 11 11 10 10 10 10 9 9 9 9 9 8 8 8 8 8 8 8 8 8 8 8 8 7 7
12 12 12 11 11 11 11 11 11 11 11 11 11 11 11 11 11 11 11 11 10 10 10 9 9 9 9 8 8 8 8 8 8 8 8 8 8 8 7 7 7 7 7
12 11 11 11 11 11 11 11 11 11 11 11 11 11 11 11 11 11 11 10 10 10 9 9 9 9 8 8 8 8 8 8 8 7 7 7 7 7 7 7 7 7 7
11 11 11 11 11 11 11 11 11 11 11 11 11 10 10 10 10 10 10 10 10 9 9 9 9 9 8 8 8 8 8 8 8 7 7 7 7 7 7 7 7 7 6
11 11 11 11 11 11 11 11 11 11 11 10 10 10 10 10 10 10 10 10 10 9 9 9 9 9 8 8 8 8 8 8 8 8 7 7 7 7 7 7 7 6 6
11 11 11 11 11 11 11 11 11 10 10 10 10 10 10 10 10 10 10 9 9 9 9 9 9 9 8 8 8 8 8 8 8 7 7 7 7 7 7 7 6 6 6
10 10 10 10 10 10 10 10 10 10 10 10 10 10 10 10 10 9 9 9 9 9 9 9 9 8 8 8 8 8 8 8 7 7 7 7 7 7 7 6 6 6 6
10 10 10 10 10 10 10 10 10 10 10 10 10 10 10 9 9 9 9 9 9 9 9 9 8 8 8 8 8 8 7 7 7 7 7 7 7 7 6 6 6 6 6
10 10 10 10 10 10 10 10 10 10 10 10 10 10 9 9 9 9 9 9 9 9 9 9 8 8 8 8 8 7 7 7 7 7 7 7 7 6 6 6 6 6 5
9 9 9 9 9 9 9 9 10 10 10 10 10 9 9 9 9 9 8 8 8 8 8 8 8 8 8 8 8 7 7 7 7 7 7 6 6 6 6 6 6 5 5
Wind_Speed
3 3 2 2 2 2 3 3 3 2 2 2 3 3 3 3 3 3 4 3 3 3 3 3 3 2 2 2 2 2 3 4 5 4 3 2 2 3 3 3 4 4 5
3 2 2 2 2 2 2 3 2 3 3 3 2 2 3 3 3 4 4 4 4 4 3 3 3 2 2 2 2 3 3 4 4 5 3 2 3 3 3 3 3 3 4
2 2 2 2 2 3 3 3 3 3 2 2 2 3 3 3 3 4 4 4 4 4 4 4 4 3 3 3 3 3 3 3 3 3 3 2 2 2 2 2 2 2 3
3 3 3 4 4 4 3 3 3 3 3 3 3 4 4 3 3 3 4 4 4 4 4 4 4 4 5 4 3 3 3 2 2 2 3 2 2 2 1 2 2 2 2
3 3 4 4 3 2 3 3 3 3 4 3 3 3 3 3 3 3 4 4 4 3 3 4 4 5 5 5 4 3 3 2 2 2 3 2 2 2 2 2 2 2 2
4 4 3 3 2 3 3 3 2 3 3 3 3 3 4 4 4 5 4 4 4 4 4 4 4 4 5 5 6 5 5 4 4 3 3 3 4 3 3 2 2 2 3
4 3 3 3 3 3 3 2 3 3 3 3 4 3 4 5 5 4 4 4 4 4 4 3 3 3 4 3 4 5 5 6 6 5 5 5 5 4 4 3 3 3 4
4 3 3 3 3 3 3 3 3 3 3 3 4 4 4 5 4 4 4 3 3 4 4 4 4 4 3 3 3 3 3 4 5 5 5 6 5 4 5 5 4 3 3
4 4 4 4 4 3 4 4 3 3 3 3 3 4 4 5 4 5 4 2 2 3 3 3 4 4 5 4 3 3 4 4 4 5 5 5 4 4 4 3 3 3 3
5 5 4 4 4 4 4 4 3 3 4 3 3 3 4 4 4 5 5 3 3 3 3 3 4 5 5 4 4 4 4 5 3 2 2 3 3 3 4 5 4 4 3
3 3 2 2 3 3 3 2 2 2 2 2 3 3 3 4 4 4 5 4 4 3 3 3 3 3 4 4 4 4 5 4 2 2 2 2 2 2 2 3 4 4 4
2 2 2 2 2 2 2 2 2 2 2 2 2 3 3 3 3 3 4 5 4 3 3 3 3 3 2 2 2 2 3 2 1 1 1 2 2 3 3 2 3 4 5
2 1 1 1 2 2 2 2 2 2 2 2 2 3 3 3 2 3 4 5 5 4 3 3 2 2 1 1 1 2 1 1 1 1 2 3 3 3 2 1 1 2 3
2 1 1 1 1 1 1 2 2 3 3 3 3 3 3 3 2 2 1 2 3 3 3 1 1 1 0 1 1 1 1 1 2 2 2 2 2 1 1 1 1 1 1
2 1 1 1 1 1 1 2 3 3 4 4 4 4 3 4 4 4 3 2 2 3 2 0 0 0 0 1 1 1 0 1 1 2 2 2 2 2 2 1 1 1 1
2 1 1 1 1 1 1 2 2 2 3 5 6 5 4 6 5 4 4 4 4 4 3 1 2 2 2 2 2 1 1 1 2 2 1 2 2 2 2 1 1 1 2
3 2 2 2 1 1 1 1 2 2 2 2 4 4 5 4 4 4 3 2 3 5 3 2 3 3 3 3 2 2 2 2 2 2 2 2 2 2 2 2 2 2 3
2 3 2 2 2 2 2 2 2 2 2 2 2 3 4 5 4 3 3 3 2 2 3 3 3 3 3 3 3 3 3 2 2 2 2 2 2 2 2 2 2 3 3
2 2 2 2 2 2 2 2 2 2 2 2 2 3 2 1 1 2 4 2 2 3 3 3 3 3 3 3 3 3 3 3 3 3 3 3 2 2 3 3 3 4 4
2 2 2 2 2 2 2 2 2 2 2 2 2 3 1 1 0 0 2 3 3 3 3 4 4 4 4 3 3 3 3 3 3 3 3 3 3 3 3 3 3 3 3
1 2 2 2 2 2 2 2 2 2 2 3 3 3 3 2 2 2 2 3 4 4 4 4 4 3 3 3 3 4 4 4 3 3 3 3 3 3 3 3 4 3 3
1 1 2 2 2 2 2 2 2 3 3 4 3 2 3 2 2 3 3 3 4 4 4 4 3 3 3 4 4 3 4 4 3 3 3 3 3 3 3 3 3 3 3
1 1 1 1 1 2 2 2 2 3 3 3 3 2 2 2 2 2 3 3 3 3 3 3 3 3 3 3 3 3 4 4 4 4 3 3 3 3 3 4 4 4 4
2 1 1 1 1 2 2 2 2 3 3 3 3 3 2 2 2 2 3 3 2 2 2 2 3 3 3 2 2 3 4 4 4 4 5 4 4 3 3 3 4 4 4
1 1 1 1 2 2 2 2 3 3 3 3 3 2 2 2 2 2 2 2 2 2 2 2 2 2 3 3 3 3 3 4 4 3 4 4 4 4 3 4 3 4 4
1 1 1 1 1 2 2 2 2 3 3 3 3 2 2 2 2 3 2 2 2 2 2 2 2 2 3 3 3 3 2 2 3 3 3 3 4 3 3 3 4 3 4
Wind_Direction
218 218 210 216 218 207 209 219 221 218 213 217 223 224 229 232 220 210 222 220 219 234 227 216 229 218 213 211 204 208 213 209 232 259 257 261 253 266 280 269 265 258 256
219 209 202 206 203 206 225 232 220 221 221 213 212 229 239 237 219 213 221 218 216 227 230 217 226 216 218 219 212 217 220 215 218 247 261 256 244 248 255 258 263 256 256
208 195 198 211 213 221 231 235 222 217 220 219 211 229 239 240 225 220 214 216 220 221 220 216 221 211 224 227 221 221 227 221 216 231 257 257 257 249 256 272 271 263 268
200 191 203 219 222 226 231 232 230 221 217 224 224 230 233 234 227 228 215 213 219 224 223 221 221 214 222 221 220 224 223 219 213 223 252 265 266 261 229 252 274 274 274
194 206 218 223 223 226 233 232 232 230 230 225 224 237 238 227 223 221 216 210 213 224 233 231 231 225 224 216 215 212 209 216 215 225 247 259 266 254 242 236 254 273 275
194 218 225 219 221 229 233 230 232 240 242 229 226 235 244 241 233 221 210 214 215 218 233 246 245 241 242 229 223 211 198 206 221 224 242 245 249 244 238 225 234 256 273
200 216 221 216 223 235 233 228 234 237 235 238 240 236 247 251 242 232 217 204 212 220 227 238 248 251 237 235 236 233 232 232 217 212 230 241 242 234 217 220 217 223 247
203 213 218 220 228 230 222 230 238 234 232 238 244 243 250 256 245 227 213 202 215 228 230 231 237 255 251 228 222 236 252 253 238 228 231 241 243 235 217 219 222 231 250
211 217 218 215 220 223 229 238 235 231 245 244 242 238 240 257 248 223 195 190 217 245 247 241 237 244 254 228 211 233 262 272 264 238 234 245 249 239 209 193 204 217 255
227 225 219 209 211 219 229 235 230 224 241 246 245 237 236 247 252 223 194 191 209 239 257 258 250 246 252 225 210 221 249 266 275 289 279 276 266 260 219 207 212 219 238
233 231 227 221 223 226 226 224 231 233 246 251 249 255 245 246 256 234 200 194 210 227 248 265 269 258 254 246 221 223 240 254 266 261 278 294 298 294 280 237 217 215 225
181 199 222 229 233 234 229 247 237 227 238 250 262 277 264 251 243 241 214 209 207 212 238 252 256 252 249 265 250 252 254 256 256 282 299 300 295 290 287 271 233 225 233
146 201 233 241 235 209 206 229 241 224 229 248 249 262 273 266 258 254 235 222 216 216 236 242 255 256 253 281 264 255 234 210 201 239 273 276 269 273 285 289 273 242 254
169 204 219 225 268 274 233 227 226 227 230 241 249 258 270 275 267 257 243 223 211 223 245 265 309 317 271 261 295 253 202 196 202 231 256 270 278 285 288 279 276 268 276
174 200 237 237 231 263 265 238 229 231 217 220 231 233 240 263 260 227 214 226 217 210 187 193 256 287 315 310 307 294 221 187 225 249 252 272 279 278 275 255 244 225 235
188 217 230 237 239 240 257 298 282 246 250 231 229 220 229 236 257 241 215 219 213 181 153 189 231 238 244 258 270 282 271 248 251 253 256 266 275 276 284 276 225 223 247
204 218 226 230 235 235 230 227 292 328 326 266 252 239 232 244 252 240 212 199 177 159 175 222 237 242 242 245 246 249 257 262 247 244 254 259 265 267 271 275 267 263 268
220 218 215 223 228 229 230 226 224 244 297 316 301 268 255 253 258 238 178 132 131 168 214 229 238 239 238 242 245 248 256 261 247 253 261 260 258 256 260 266 267 270 273
227 229 221 219 218 221 224 227 231 237 254 282 310 318 304 275 235 178 157 174 217 229 232 237 241 244 240 239 241 241 243 248 249 246 253 256 257 252 254 260 267 265 263
250 251 224 217 220 218 220 230 240 239 252 269 277 283 312 56 16 193 199 214 226 239 240 242 246 246 243 241 239 237 242 246 247 242 243 244 242 240 247 256 262 264 261
258 264 243 228 225 221 224 232 236 236 246 260 270 265 222 222 241 237 230 228 231 238 243 243 244 246 243 240 237 235 238 243 243 241 244 243 239 240 248 251 255 254 257
222 242 236 235 238 230 234 239 240 246 252 258 271 274 237 228 245 251 247 246 242 236 233 233 239 239 236 235 233 230 232 237 240 240 243 245 243 243 245 248 253 257 258
219 231 245 257 242 246 247 249 245 250 258 260 256 253 252 245 252 259 262 256 248 240 230 224 231 241 242 237 230 228 235 242 242 239 238 244 246 248 248 251 258 264 260
220 226 235 246 243 251 258 261 256 256 259 255 248 243 241 247 259 272 283 270 253 245 234 223 229 238 248 252 238 232 237 244 244 237 233 235 238 242 248 255 259 263 264
220 222 231 243 246 253 260 264 261 258 257 252 246 243 243 247 260 275 286 290 275 259 253 242 235 241 248 254 261 256 247 243 239 232 228 227 231 235 244 256 263 273 275
231 229 238 244 254 262 257 257 261 260 256 250 243 243 246 245 251 260 271 281 288 286 285 273 261 262 265 259 266 270 254 244 237 231 222 223 229 236 243 251 259 266 278
Height
1485 1485 1485 1486 1486 1487 1487 1487 1488 1488 1489 1489 1490 1490 1490 1491 1492 1492 1492 1493 1493 1493 1493 1493 1493 1493 1493 1493 1493 1494 1494 1494 1494 1494 1494 1494 1494 1494 1494 1494 1494 1494 1494
1483 1484 1484 1485 1485 1485 1486 1486 1486 1487 1487 1487 1488 1488 1489 1489 1489 1490 1490 1490 1490 1490 1490 1490 1490 1490 1490 1490 1490 1490 1490 1490 1491 1490 1490 1490 1490 1490 1490 1490 1490 1490 1491
1482 1482 1483 1483 1483 1484 1484 1484 1484 1485 1485 1485 1486 1486 1487 1487 1487 1488 1487 1487 1487 1488 1488 1488 1488 1488 1488 1488 1487 1487 1487 1487 1487 1487 1486 1486 1486 1486 1486 1486 1486 1486 1487
1481 1481 1481 1482 1482 1482 1482 1482 1482 1482 1483 1483 1484 1484 1485 1485 1485 1485 1485 1485 1485 1485 1485 1486 1486 1486 1485 1485 1485 1484 1484 1484 1484 1483 1483 1483 1482 1482 1482 1482 1482 1482 1482
1479 1479 1480 1480 1480 1480 1480 1480 1480 1480 1481 1481 1482 1482 1483 1483 1483 1483 1483 1483 1483 1483 1483 1483 1483 1483 1483 1483 1482 1482 1481 1481 1481 1480 1479 1479 1478 1478 1478 1478 1478 1478 1478
1477 1478 1478 1479 1479 1478 1478 1478 1479 1479 1479 1480 1480 1480 1481 1481 1481 1481 1480 1480 1480 1480 1480 1480 1480 1480 1480 1480 1480 1479 1479 1479 1478 1477 1476 1475 1475 1475 1475 1475 1475 1475 1475
1476 1476 1477 1477 1477 1477 1477 1477 1477 1477 1477 1478 1478 1478 1478 1478 1478 1478 1478 1478 1478 1478 1478 1478 1478 1478 1478 1477 1477 1477 1476 1476 1476 1475 1473 1473 1472 1472 1472 1472 1472 1472 1471
1474 1475 1475 1475 1475 1476 1476 1475 1476 1476 1476 1476 1476 1476 1476 1476 1476 1476 1476 1475 1475 1475 1475 1475 1475 1475 1475 1474 1474 1474 1474 1473 1473 1472 1471 1470 1470 1469 1469 1469 1469 1469 1468
1472 1472 1473 1473 1473 1474 1474 1474 1474 1474 1473 1473 1473 1473 1473 1474 1474 1474 1473 1473 1473 1473 1473 1473 1472 1472 1472 1472 1471 1471 1470 1470 1470 1469 1468 1467 1466 1466 1466 1466 1465 1465 1464
1470 1470 1471 1471 1471 1471 1472 1472 1472 1471 1471 1471 1471 1471 1471 1471 1471 1471 1471 1470 1470 1470 1470 1470 1469 1469 1469 1468 1468 1467 1466 1466 1466 1465 1465 1464 1463 1462 1462 1462 1462 1461 1461
1468 1469 1469 1469 1470 1470 1470 1470 1470 1469 1469 1469 1469 1469 1469 1468 1468 1468 1468 1467 1467 1467 1467 1466 1466 1466 1466 1465 1464 1464 1463 1463 1462 1461 1461 1460 1460 1459 1459 1459 1458 1458 1458
1467 1467 1467 1467 1468 1468 1468 1468 1468 1468 1467 1466 1466 1466 1466 1466 1466 1465 1465 1465 1464 1464 1463 1463 1463 1463 1462 1462 1461 1460 1460 1459 1459 1458 1457 1456 1456 1455 1455 1455 1455 1455 1455
1465 1465 1465 1465 1465 1465 1465 1465 1465 1465 1465 1464 1464 1463 1463 1463 1463 1463 1463 1462 1462 1461 1461 1461 1460 1460 1459 1459 1458 1458 1457 1456 1456 1455 1454 1453 1453 1453 1452 1452 1451 1451 1451
1462 1462 1463 1463 1463 1463 1463 1463 1463 1462 1462 1462 1461 1461 1461 1461 1461 1460 1460 1460 1459 1459 1459 1458 1458 1457 1456 1456 1456 1455 1454 1454 1453 1452 1452 1451 1450 1450 1449 1449 1449 1448 1448
1460 1460 1460 1460 1460 1461 1461 1461 1461 1461 1460 1460 1459 1459 1459 1459 1459 1458 1458 1457 1456 1456 1456 1456 1455 1454 1454 1453 1453 1452 1452 1452 1451 1450 1449 1448 1448 1447 1447 1446 1446 1445 1445
1457 1457 1458 1458 1458 1458 1459 1459 1459 1459 1458 1458 1458 1457 1457 1457 1456 1456 1455 1455 1454 1454 1454 1453 1452 1451 1451 1450 1450 1450 1449 1449 1448 1448 1447 1446 1445 1445 1444 1444 1443 1443 1442
1455 1455 1455 1456 1456 1456 1456 1456 1456 1456 1456 1456 1456 1455 1455 1454 1454 1453 1453 1452 1452 1452 1451 1450 1449 1449 1448 1448 1447 1447 1447 1446 1446 1445 1444 1443 1443 1442 1442 1441 1441 1440 1439
1453 1453 1454 1454 1454 1454 1454 1454 1454 1454 1453 1453 1454 1453 1453 1452 1452 1451 1450 1450 1449 1449 1448 1448 1447 1446 1446 1445 1445 1444 1444 1443 1443 1442 1441 1440 1440 1439 1439 1438 1438 1437 1436
1451 1451 1451 1452 1452 1452 1452 1452 1452 1451 1451 1451 1451 1451 1450 1450 1449 1449 1448 1447 1447 1446 1446 1445 1445 1444 1443 1443 1442 1441 1441 1440 1440 1439 1438 1438 1437 1437 1436 1435 1435 1434 1433
1449 1449 1449 1449 1449 1449 1449 1449 1449 1449 1448 1448 1448 1448 1447 1447 1446 1445 1445 1444 1444 1444 1443 1442 1442 1441 1440 1439 1439 1438 1437 1437 1436 1436 1435 1435 1434 1434 1433 1432 1432 1431 1430
1447 1447 1447 1447 1447 1447 1447 1446 1446 1446 1446 1446 1446 1446 1445 1444 1443 1442 1442 1441 1441 1441 1440 1439 1439 1438 1437 1436 1436 1435 1434 1434 1433 1433 1432 1431 1431 1430 1430 1429 1428 1427 1426
1444 1444 1444 1444 1444 1444 1444 1444 1444 1444 1444 1443 1443 1443 1442 1442 1441 1439 1439 1438 1438 1437 1437 1436 1435 1435 1434 1434 1433 1432 1431 1431 1430 1430 1429 1428 1428 1427 1426 1425 1425 1424 1423
1442 1442 1442 1442 1442 1442 1441 1441 1441 1441 1441 1440 1440 1440 1439 1439 1438 1437 1436 1435 1434 1434 1433 1433 1432 1432 1431 1431 1430 1429 1428 1428 1427 1427 1426 1425 1424 1424 1423 1422 1421 1420 1419
1440 1439 1439 1439 1439 1439 1439 1438 1438 1438 1438 1437 1437 1437 1436 1436 1435 1434 1433 1431 1430 1430 1430 1429 1429 1428 1428 1427 1427 1426 1425 1425 1424 1423 1423 1422 1421 1420 1420 1419 1418 1417 1416
1437 1437 1437 1437 1436 1436 1436 1436 1435 1435 1435 1434 1434 1434 1433 1433 1432 1431 1430 1428 1427 1427 1426 1426 1425 1425 1425 1424 1424 1423 1422 1422 1421 1421 1420 1419 1418 1417 1416 1416 1415 1414 1413
1435 1435 1434 1434 1434 1434 1433 1433 1432 1432 1432 1431 1431 1430 1430 1430 1429 1429 1428 1426 1425 1424 1424 1423 1423 1422 1422 1421 1421 1420 1420 1419 1419 1418 1417 1416 1415 1414 1414 1413 1412 1411 1410